Regional Weather Roundup
Issued by NWS Newport/Morehead, NC

Current Version | Previous Version | Text Only | Print | Product List | Glossary On
Versions: 1 2 3 4 5 6 7 8 9 10 11 12 13 14 15 16 17 18 19 20 21 22 23 24 25 26 27 28 29 30 31 32 33 34 35 36 37 38 39 40 41 42 43 44 45 46 47 48 49 50
000
ASUS42 KMHX 021825
RWRMHX
WEATHER ROUNDUP FOR EASTERN NORTH CAROLINA
NATIONAL WEATHER SERVICE NEWPORT/MOREHEAD CITY NC
200 PM EDT SUN AUG 02 2015

NOTE: "FAIR" INDICATES FEW OR NO CLOUDS BELOW 12,000 FEET
WITH NO SIGNIFICANT WEATHER AND/OR OBSTRUCTIONS TO VISIBILITY

NCZ015>017-031-032-045>047-102-103-021900-
NORTH COAST

CITY           SKY/WX    TMP DP  RH WIND       PRES   REMARKS
EDENTON          N/A     92  65  40 SW6       29.92F
ELIZABETH CITY MOSUNNY   91  62  37 SW8       29.92F
KITTY HAWK     CLEAR     95  65  36 SE6       29.92S
MANTEO         MOSUNNY   88  72  57 S8        29.93S

$$

NCZ045>047-081-094-103-104-021900-
CENTRAL COAST

CITY           SKY/WX    TMP DP  RH WIND       PRES   REMARKS
FRISCO         SUNNY     87  75  67 S8        29.95R
SWANQUARTER      N/A     91 N/A N/A S3        29.91R

$$

NCZ095-097-098-100-101-021900-
SOUTHERN COAST

CITY           SKY/WX    TMP DP  RH WIND       PRES   REMARKS
BEAUFORT       PTSUNNY   84  77  79 S10       29.95R
CEDAR ISLAND     N/A     90 N/A N/A SE7G13    30.00R
JACKSONVILLE   LGT RAIN  87  69  54 SW5       29.93S
PINEY ISLAND   NOT AVBL
WILMINGTON     PTSUNNY   88  74  63 SE12G21   29.94S


$$

NCZ011>013-027>030-043-044-078>080-089-090>093-098-021900-
COASTAL PLAIN

CITY           SKY/WX    TMP DP  RH WIND       PRES   REMARKS
AHOSKIE        PTSUNNY   85  64  49 CALM      29.94F
CLINTON        SUNNY     94  63  35 CALM      29.94F
ELIZABETHTOWN  SUNNY     94  56  27 S6        29.93F
GOLDSBORO      SUNNY     92  62  37 VRB2      29.92F
GREENVILLE     MOSUNNY   95  61  31 SW5       29.95S
HAVELOCK       MOSUNNY   88  72  58 S8        29.94S
KENANSVILLE    SUNNY     91  57  31 CALM      29.95S
KINSTON        SUNNY     91  63  38 CALM      29.94F
NEW BERN       SUNNY     94  65  38 W7        29.94S
RICHLANDS      SUNNY     93  57  29 SW3       29.93S
ROCKY MOUNT    MOSUNNY   91  58  32 VRB6      29.95F
WASHINGTON     SUNNY     90  64  40 CALM      29.93F
WHITEVILLE     SUNNY     91  67  44 CALM      29.93F

$$

AMZ130-135-150-152-154-156-158-170-250-252-270-ANZ085-086-088-633-658-670-021900-
MARINE OBSERVATIONS

STATION/POSITION TIME  TEMP    WIND        PRES    WAVE   SWELL
                       AIR SEA DIR/SP/G            HT/PER HT/PER
                 (UTC) (F)     (DEG/KT/KT) (MB)    (FT/S) (FT/S)
CHESAPEAKE LIGHT 1800   80      20/ 11/ 12 1014.1
64 E VA BEACH    1750   82 83  150/ 12/ 14 1013.2    3/ 7   3/ 7
DUCK             1800   85 80  120/  6/  7 1012.6
2 E DUCK         1711      81                N/A     1/11   2/11
OREGON INLET     1800   84 80  120/  8/ 11 1013.7
13E OREGON INLT  1800      83                N/A     2/12   2/12
HATTERAS CG      1800   86 81  170/  6/ 10 1014.1
DIAMOND BUOY     1750   82 86  170/ 14/ 16 1014.5    3/ 8   2/ 8
CAPE LOOKOUT     1800   82     170/ 11/ 13 1014.2
BEAUFORT LAB     1800   83 83  180/ 11/ 14 1013.5
30 SE NEW RVR IN NOT AVBL
27 SE WRIGHTSVLE 1800   80 84  190/ 10/ 12   N/A
5 SE WRIGHTSVLE  1708   82 85  170/ 10/ 14 1014.2
225 S CAPE HAT   1750   83 81  220/ 12/ 16 1017.0    7/ 8   7/ 8
41 SE CHARLESTON 1750   78 83  140/ 12/ 14 1014.2    4/ 6   3/ 6

$$



USA.gov is the U.S. government's official web portal to all federal, state and local government web resources and services.